Weather History for KCWF - January, 2014

Change the Weather History Date:

Wednesday, January 15, 2014

  Actual Average Record
Temperature  
Mean Temperature 46 °F -  
Max Temperature 55 °F 60 °F 71 °F (2000)
Min Temperature 36 °F 45 °F 32 °F (2009)
Degree Days  
Heating Degree Days 20    
Moisture  
Dew Point 29 °F    
Average Humidity 54    
Maximum Humidity 81    
Minimum Humidity 21    
Precipitation  
Precipitation 0.00 in - - ()
Sea Level Pressure  
Sea Level Pressure 30.24 in    
Wind  
Wind Speed 9 mph (NNW)    
Max Wind Speed 18 mph    
Max Gust Speed 25 mph    
Visibility 10 miles    
Events      
Averages and records for this station are not official NWS values.
T = Trace of Precipitation, MM = Missing Value Source: NWS Daily Summary

Daily Weather History Graph

Daily Weather History Graph

Search for Another Location

Airport or City:

Trip Planner

Search our weather history database for the weather conditions in past years. The results will help you decide how hot, cold, wet, or windy it might be!

Date:

Astronomy

Jan. 15, 2014 Rise Set
Actual Time 7:09 AM CST 5:34 PM CST
Civil Twilight 6:43 AM CST 6:00 PM CST
Nautical Twilight 6:14 AM CST 6:30 PM CST
Astronomical Twilight 5:45 AM CST 6:58 PM CST
Moon 5:28 PM CST (1/15) 6:29 AM CST (1/15)
Length of Visible Light 11h 16m
Length of Day
10h 25m
Full, 100% of the Moon is Illuminated
Jan 15
Full
Jan 15
Full
Jan 23
Last Quarter
Jan 30
New
Feb 6
First Quarter

Hourly Weather History & Observations

Time (CST) Temp. Windchill Dew Point Humidity Pressure Visibility Wind Dir Wind Speed Gust Speed Precip Events Conditions
12:15 AM 48.4 °F - 42.4 °F 80% 30.16 in 10.0 mi WNW 5.8 mph - N/A   Clear
12:35 AM 49.1 °F - 39.6 °F 70% 30.16 in 10.0 mi NW 9.2 mph - N/A   Clear
12:55 AM 50.2 °F - 36.7 °F 60% 30.16 in 10.0 mi North 12.7 mph - N/A   Clear
1:15 AM 50.2 °F - 36.5 °F 59% 30.17 in 10.0 mi North 10.4 mph 16.1 mph N/A   Clear
1:35 AM 49.3 °F - 36.0 °F 60% 30.18 in 10.0 mi NNW 8.1 mph - N/A   Clear
1:55 AM 47.8 °F - 35.8 °F 63% 30.18 in 10.0 mi NNW 6.9 mph - N/A   Clear
2:15 AM 46.9 °F - 35.8 °F 65% 30.19 in 10.0 mi NW 6.9 mph - N/A   Clear
2:35 AM 47.3 °F - 36.5 °F 66% 30.19 in 10.0 mi NNW 5.8 mph - N/A   Clear
2:55 AM 47.7 °F - 36.1 °F 64% 30.20 in 10.0 mi NNW 8.1 mph - N/A   Clear
3:15 AM 48.6 °F - 36.5 °F 63% 30.22 in 10.0 mi NW 10.4 mph - N/A   Scattered Clouds
3:35 AM 48.7 °F - 35.8 °F 61% 30.22 in 10.0 mi NNW 12.7 mph 19.6 mph N/A   Clear
3:55 AM 49.3 °F - 34.7 °F 57% 30.23 in 10.0 mi NNW 15.0 mph 21.9 mph N/A   Clear
4:15 AM 48.9 °F - 33.3 °F 55% 30.23 in 10.0 mi NNW 13.8 mph 19.6 mph N/A   Clear
4:35 AM 48.6 °F - 33.1 °F 55% 30.25 in 10.0 mi NNW 12.7 mph 20.7 mph N/A   Clear
4:55 AM 48.0 °F - 32.0 °F 54% 30.25 in 10.0 mi NNW 12.7 mph 23.0 mph N/A   Clear
5:15 AM 46.9 °F - 32.0 °F 56% 30.26 in 10.0 mi NNW 11.5 mph 18.4 mph N/A   Clear
5:35 AM 46.4 °F 41.9 °F 32.0 °F 57% 30.27 in 10.0 mi NNW 9.2 mph 18.4 mph N/A   Clear
5:55 AM 45.7 °F 39.8 °F 31.1 °F 57% 30.28 in 10.0 mi NNW 12.7 mph 17.3 mph N/A   Clear
6:00 AM 46.4 °F 41.1 °F 30.2 °F 53% 30.28 in 10.0 mi NNW 11.5 mph 17.3 mph N/A   Clear
6:50 AM 42.8 °F 38.0 °F 28.4 °F 57% 30.31 in 10.0 mi NW 8.1 mph - N/A   Clear
7:45 AM 42.8 °F 38.0 °F 28.4 °F 57% 30.33 in 10.0 mi NNW 8.1 mph - N/A   Clear
9:50 AM 48.2 °F - 21.2 °F 34% - 10.0 mi NNW 9.2 mph - N/A   Clear
10:50 AM 51.8 °F - 17.6 °F 26% 30.36 in 10.0 mi North 9.2 mph 20.7 mph N/A   Clear
11:50 AM 53.6 °F - 17.6 °F 24% 30.32 in 10.0 mi NNW 13.8 mph 19.6 mph N/A   Clear
12:57 PM 53.6 °F - 17.6 °F 24% 30.26 in 10.0 mi NNW 13.8 mph 19.6 mph N/A   Clear
1:54 PM 55.4 °F - 15.8 °F 21% 30.24 in 10.0 mi NW 18.4 mph 25.3 mph N/A   Clear
2:50 PM 55.4 °F - 15.8 °F 21% 30.23 in 10.0 mi NW 12.7 mph 23.0 mph N/A   Clear
3:55 PM 55.4 °F - 17.6 °F 23% 30.23 in 10.0 mi WNW 12.7 mph - N/A   Clear
4:50 PM 55.4 °F - 17.6 °F 23% 30.23 in 10.0 mi WNW 12.7 mph - N/A   Clear
5:52 PM 50.0 °F - 21.2 °F 32% 30.23 in 10.0 mi WNW 4.6 mph - N/A   Clear
6:56 PM 46.4 °F 43.5 °F 21.2 °F 37% 30.26 in 10.0 mi NNW 5.8 mph - N/A   Clear
7:51 PM 44.6 °F - 24.8 °F 46% 30.26 in 10.0 mi Calm Calm - N/A   Clear
8:55 PM 39.2 °F - 28.4 °F 65% 30.27 in 10.0 mi Calm Calm - N/A   Clear
10:15 PM 37.2 °F 34.7 °F 29.5 °F 74% 30.25 in 10.0 mi South 3.5 mph - N/A   Clear
10:35 PM 37.2 °F - 30.4 °F 76% 30.24 in 10.0 mi Calm Calm - N/A   Clear
10:55 PM 37.6 °F 34.0 °F 29.1 °F 72% 30.22 in 10.0 mi ESE 4.6 mph - N/A   Clear
11:15 PM 36.9 °F - 29.3 °F 74% 30.22 in 10.0 mi Calm Calm - N/A   Clear
11:35 PM 36.7 °F - 28.2 °F 71% 30.21 in 10.0 mi Calm Calm - N/A   Clear
11:55 PM 36.3 °F - 31.1 °F 81% 30.22 in 10.0 mi Calm Calm - N/A   Clear